Regional Weather Roundup
Issued by NWS San Diego, CA

Home | Current Version | Previous Version | Text Only | Print | Product List | Glossary On
Versions: 1 2 3 4 5 6 7 8 9 10 11 12 13 14 15 16 17 18 19 20 21 22 23 24 25 26 27
000
ASUS46 KSGX 221011
RWRSGX

SAN DIEGO HOURLY WEATHER ROUNDUP
NATIONAL WEATHER SERVICE SAN DIEGO CA
200 AM PST MON JAN 22 2018

NOTE: "FAIR" INDICATES FEW OR NO CLOUDS BELOW 12,000 FEET WITH NO
SIGNIFICANT WEATHER AND/OR OBSTRUCTIONS TO VISIBILITY.

CAZ042-043-060-061-PZZ750-775-221100-

GREATER SAN DIEGO AREA

CITY           SKY/WX    TMP DP  RH WIND       PRES   REMARKS
SAN DIEGO AP   PTCLDY    50  35  56 CALM      30.27S
NATIONAL CITY    N/A     47  39  72 CALM      30.27F
CHULA VISTA      N/A     44  39  84 CALM      30.18S
IMPERIAL BEACH CLEAR     47  38  71 NE6       30.25F
BROWN FIELD    PTCLDY    46  38  73 E5        30.25S
MIRAMAR MCAS   PTCLDY    47  37  68 E7        30.24F
MONTGOMERY FLD CLEAR     45  34  65 E3        30.25F
GILLESPIE FLD  FAIR      41  36  81 CALM      30.25F

$$

NORTH SAN DIEGO COUNTY

CITY           SKY/WX    TMP DP  RH WIND       PRES   REMARKS
CAMP PENDLETON PTCLDY    36  35  96 CALM      30.26S
OCEANSIDE AP   PTCLDY    42  35  76 CALM      30.25F
OCEANSIDE HBR    N/A     46  37  70 NE5       30.28S
VISTA            N/A     42  36  78 CALM      30.23F
CARLSBAD       PTCLDY    49  35  58 NE6       30.23F
DEL MAR          N/A     48  38  68 CALM      30.26F
LA JOLLA SCRIP   N/A     50  38  64 E3        30.25S
FALLBROOK        N/A     49  34  55 NE5       30.27F
ESCONDIDO        N/A     43  34  69 CALM      30.27S
SAN MARCOS       N/A     46  35  67 CALM      30.28F
POWAY            N/A     39  33  81 CALM      30.27S

$$

EAST SAN DIEGO COUNTY

CITY           SKY/WX    TMP DP  RH WIND       PRES   REMARKS
RAMONA         PTCLDY    34  32  92 E6        30.24S FOG     WCI  29
SANTEE LAKES     N/A     41  36  81 CALM      30.26S
LA MESA          N/A     47  36  65 CALM      30.20S
JAMUL            N/A     41  35  77 CALM      30.27S
DESCANSO N       N/A     41  20  43 NE2       30.26S
MT. LAGUNA OBS   N/A     32  10  38 N10       30.26R WCI  24
CAMPO            N/A     33  23  66 CALM      30.20S

$$

ORANGE COUNTY AND THE LOS ANGELES BASIN

CITY           SKY/WX    TMP DP  RH WIND       PRES   REMARKS
JOHN WAYNE AP  PTCLDY    47  39  74 CALM      30.25S
LAGUNA BEACH     N/A     44  36  72 CALM      30.20S
HUNTINGTON BCH   N/A     42  40  91 CALM      30.27S
LOS ALAMITOS   FAIR      45  34  66 CALM      30.25S
FULLERTON      PTCLDY    45  35  68 CALM      30.25S
LONG BEACH     PTCLDY    49  37  63 CALM      30.26S
L.A. AP        PTCLDY    50  31  48 E3        30.26S
L.A. DOWNTOWN  PTCLDY    49  28  44 CALM      30.25F

$$

THE INLAND EMPIRE

CITY           SKY/WX    TMP DP  RH WIND       PRES   REMARKS
CORONA         MOCLDY    35  31  85 CALM      30.28
CHINO          PTCLDY    42  34  73 CALM      30.27S
ONTARIO        PTCLDY    39  29  67 N3        30.25F
SAN BERNARDINO FAIR      46  29  53 SE5       30.26F
RIVERSIDE AP   PTCLDY    43  32  65 CALM      30.26S
MORENO VALLEY    N/A     44  32  61 CALM      28.36F
MARCH ARB      MOCLDY    35  32  89 CALM      30.25S
HORSETHIEF CYN   N/A     46  14  27 CALM      30.29F
PERRIS           N/A     41  33  72 CALM      30.23S
HEMET EAST       N/A     42  18  37 CALM      30.34F
FRENCH VALLEY  FAIR      41  30  65 CALM      30.26F
TEMECULA         N/A     42  37  84 CALM      30.30S

$$

SAN BERNARDINO AND RIVERSIDE COUNTY MOUNTAINS

CITY           SKY/WX    TMP DP  RH WIND       PRES   REMARKS
BIG BEAR AP    MOCLDY    21  10  63 CALM      30.25S
ANGELUS OAKS     N/A     31  13  47 CALM      30.31S

$$

SOUTHERN DESERT INCLUDING THE COACHELLA VALLEY

CITY           SKY/WX    TMP DP  RH WIND       PRES   REMARKS
PALM SPRINGS   MOCLDY    47  32  56 N5        30.30S
THOUSAND PALMS   N/A     45  25  45 W2        30.27S
PALM DESERT      N/A     44  32  62 CALM      28.17S
THERMAL        MOCLDY    38  29  70 W3        30.27S
BLYTHE         MOCLDY    42  15  33 S5        30.28S
IMPERIAL AP    PTCLDY    42  17  36 SW3       30.28S
EL CENTRO NAS  PTCLDY    40  12  32 W7        30.30R
YUMA AZ        MOCLDY    45  19  35 N5        30.27S

$$

UPPER DESERT

CITY           SKY/WX    TMP DP  RH WIND       PRES   REMARKS
VICTORVILLE AP MOCLDY    34  14  44 CALM      30.30S
HESPERIA         N/A     36  19  51 W2        30.51F
APPLE VALLEY     N/A     29  22  74 CALM      30.42F
PALMDALE       PTCLDY    36  24  62 S8        30.30F WCI  30
LANCASTER      MOCLDY    34  26  72 CALM      30.31S
EDWARDS AFB    MOCLDY    33  21  59 CALM      30.29S
DAGGETT        CLOUDY    39  17  41 W7        30.30S WCI  34
29 PALMS N     MOCLDY    38  18  44 CALM      30.36F
NEEDLES        MOCLDY    43  18  36 CALM      30.29S

$$

REGIONAL REPORTS

CITY           SKY/WX    TMP DP  RH WIND       PRES   REMARKS
SANTA BARBARA  CLEAR     44  35  70 NW3       30.28S
SANDBERG       PTCLDY    37  19  48 N7        30.28S WCI  32
LAS VEGAS NV   CLOUDY    39  23  52 CALM      30.31S
PHOENIX AZ     PTCLDY    42  25  50 E5        30.24S
TIJUANA        PTCLDY    48  34  57 CALM      30.28R
ENSENADA NW      N/A     53  32  45 CALM      30.16S

$$

OFFSHORE ISLANDS

CITY           SKY/WX    TMP DP  RH WIND       PRES   REMARKS
CATALINA ARPT    N/A     50  31  48 NW9       30.25S
SAN NICOLAS IS PTCLDY    52  32  46 NW13      30.27S

$$

MARINE AND OFFSHORE BUOY REPORTS

STATION/POSITION SKY/WX   TEMP    WIND        PRES    VSBY  SWELL
                          AIR SEA DIR/SP/G                  HT/PER/DIR
                          (F)     (DEG/KT/KT) (MB)    (MI)  (FT/S/D)
TANNER BANKS               57 59              1024.9F
S CLEMENTE BASIN           60 61  350/ 10/ 12 1024.3F         7/290/13
SAN NICOLAS IS.               58                N/A           7/300/13
SO. S. ROSA ISLA           56 56  310/ 16/ 19 1025.3R         7/300/12
W. S. BARBARA CH           56 57  320/ 19/ 23 1025.6
M. S. BARBARA CH           57 58  110/  2/  4 1026.0
S. MONICA BASIN               60  330/ 10/ 12 1024.5R         3/260/13
S PEDRO CHANNEL               60                N/A           3/270/13
CMP PENDLETON NS              60                N/A           2/250/13
OCEANSIDE OFFSHR              61                N/A           2/260/13
TORREY PINES OTR              61                N/A           3/270/12
SAN DIEGO BAY                 64              1025.0F
POINT LOMA SOUTH              60                N/A           3/290/13

$$





USA.gov is the U.S. government's official web portal to all federal, state and local government web resources and services.